Back to catalog

SL-23 R/B

AliveMEO
NORAD 33059·ROCKET BODY·🇷🇺 Russia

Launched Apr 28, 2008 from Baikonur Cosmodrome

Loading…

Next Passes (next 24 hours)

TLE

FreshSource: Space-Track

Epoch: Sep 14, 2026, 12:18 UTC

1 33059U 08022B   26257.51299531 -.00000170  00000-0  00000-0 0  9998
2 33059  13.8582  31.7244 0542406  58.3123 130.5833  0.95533797 63823

Track SL-23 R/B in real time with AllMySat

Download on the App Store